Regional Weather Roundup
Issued by NWS Upton, NY

Current Version | Previous Version | Text Only | Print | Product List | Glossary On
Versions: 1 2 3 4 5 6 7 8 9 10 11 12 13 14 15 16 17 18 19 20 21 22 23 24 25 26 27
000
ASUS41 KOKX 161609
RWROKX

REGIONAL WEATHER ROUNDUP
NATIONAL WEATHER SERVICE NEW YORK NY
1200 PM EDT MON OCT 16 2017

NOTE: "FAIR" INDICATES FEW OR NO CLOUDS BELOW 12,000 FEET WITH NO
SIGNIFICANT WEATHER AND/OR OBSTRUCTIONS TO VISIBILITY.

NYZ071-072-176-178-NJZ106-104-161700-
NEW YORK CITY METRO AREA

CITY           SKY/WX    TMP DP  RH WIND       PRES   REMARKS
Central Park   CLOUDY    56  42  59 NW9G17    30.06R
Bronx Bot Gard   N/A     55  39  54 NW2       30.04R
LaGuardia APRT CLOUDY    57  43  59 NW18      30.02R
Kennedy INTL   PTSUNNY   58  42  55 NW16G23   30.02R
Breezy Point     N/A     55 N/A N/A NW14G22     N/A
Newark/Liberty CLOUDY    57  41  55 NW13G22   30.03S
Teterboro      CLOUDY    57  42  57 NW12      30.03R
$$

NYZ177-179-078>081-161700-
LONG ISLAND NEW YORK

CITY           SKY/WX    TMP DP  RH WIND       PRES   REMARKS
Jones Beach      N/A     57 N/A N/A NW16G23     N/A
Matinecock PT    N/A     57 N/A N/A NW22        N/A
Farmingdale    CLOUDY    58  43  57 N14G22    30.00R
MacArthur/ISP  CLOUDY    60  46  59 N17       29.99R
Shirley        CLOUDY    61  48  62 N10       29.98R
Mt Sinai Harb    N/A    N/A N/A N/A N10G17      N/A
Westhampton    CLOUDY    59  46  63 N13       29.98
East Hampton   PTSUNNY   56  44  63 N10G20    29.97R
Montauk          N/A     59  45  59 NW9       29.96F
$$

NYZ052-065-067-161700-
HUDSON VALLEY

CITY           SKY/WX    TMP DP  RH WIND       PRES   REMARKS
White Plains   CLOUDY    56  43  61 NW15      30.00R
Larchmont Harb   N/A     55 N/A N/A W17         N/A
Croton On Huds   N/A     57 N/A N/A NW16G24     N/A
Newburgh       PTSUNNY   55  43  62 NW12G17   30.04R
Montgomery     PTSUNNY   55  40  56 NW16G23   30.04
Poughkeepsie   PTSUNNY   54  41  61 N10       30.02R
Albany         PTSUNNY   52  38  58 W15G23    30.06R
$$

NJZ001-105-106-008-010-013-015-019>022-104-161700-
NEW JERSEY

CITY           SKY/WX    TMP DP  RH WIND       PRES   REMARKS
Newark/Liberty CLOUDY    57  41  55 NW13G22   30.03S
Teterboro      CLOUDY    57  42  57 NW12      30.03R
Caldwell       CLOUDY    55  42  61 NW12      30.04R
Somerville     CLOUDY    56  42  59 NW10      30.04R
Linden         FAIR      56  39  54 N13G18    30.04R
Perth Amboy      N/A     54 N/A N/A NW14        N/A
Sussex         CLOUDY    53  39  59 VRB7      30.07R
Andover          N/A     52  40  63 NW9       30.05R
Trenton        CLOUDY    55  41  59 N13       30.04R
Millville      PTSUNNY   60  50  69 N13       30.02F
Atlantic City  CLOUDY    58  52  80 N13       30.00F
Wrightstown    PTSUNNY   55  45  67 NW14G23   30.03S
Toms River       N/A     56  48  74 NW10      30.03S
Belmar         CLOUDY    56  44  64 NW17      30.03S
$$

PAZ047>061-062-071-161700-
EASTERN PENNSYLVANIA

CITY           SKY/WX    TMP DP  RH WIND       PRES   REMARKS
Philadelphia   CLOUDY    58  42  55 N14       30.06R
Allentown      CLOUDY    53  39  59 NW16      30.06F
Scranton       CLOUDY    50  39  66 NW14G20   30.11R
$$

CTZ002-004>006-009-010-012-RIZ004-006-007-MAZ004-011-015-161700-
SOUTHERN NEW ENGLAND
 IN CT

CITY           SKY/WX    TMP DP  RH WIND       PRES   REMARKS
Bradley INTL   CLOUDY    53  41  63 N12       30.00R
Hartford       CLOUDY    54  40  59 NW12G20   29.99R
Danbury        CLOUDY    55  42  61 NW9       30.02R
Wtrbury/Oxford CLOUDY    50  39  66 N18       30.01R
Norwalk Harbor   N/A     55 N/A N/A NW16        N/A
Bridgeport     CLOUDY    58  43  57 N9        29.98S
Meriden        CLOUDY    54  39  57 NW15G23   30.00R
New Haven      CLOUDY    58  41  53 NW16G28   29.99R
Chester        FAIR      55  39  54 N8G17     29.97S
Groton         CLOUDY    57  43  59 N14       29.95S
Wilimantic     CLOUDY    56  43  61 NW12G18   29.98R

 IN RI

CITY           SKY/WX    TMP DP  RH WIND       PRES   REMARKS
Providence     CLOUDY    60  48  64 NW10      29.93F
Block Island   CLOUDY    58  47  66 NW9G18    29.94F
Westerly       CLOUDY    58  45  62 N8        29.95F
 IN MA

CITY           SKY/WX    TMP DP  RH WIND       PRES   REMARKS
Boston         CLOUDY    59  44  57 NW15      29.93R
Worcester      CLOUDY    51  40  65 NW15      29.96R
Westfield      CLOUDY    54  40  59 N15       29.99R
Provincetown   CLOUDY    60  49  66 N13       29.91F
Nantucket      CLOUDY    63  54  72 NW12      29.91R
$$

ANZ330-335-338-340-345-350-353-355-161700-
COASTAL MARINE OBSERVATIONS


STATION/POSITION TIME  SKY/WX   TEMP    WIND        PRES    VSBY  WAVE
                                AIR SEA DIR/SP/G                  HT/PER
                 (UTC)          (F)     (DEG/KT/KT) (MB)    (MI)  (FT/S)
NY HARB ENTRANCE 1450            58 67  310/ 19/ 25 1014.7          3/ 4
20 S FIRE ISLAND 1450            60 65  310/ 19/ 23 1014.4          5/ 6
GREAT SOUTH BAY  1530            58 66  330/ 12/ 16   N/A
15 E BARNEGAT LI 1530               68                N/A           4/ 7
HUDSON CANYON    1450            62 66  350/ 10/ 12 1013.9          5/ 7
KINGS POINT      1536            57 68   10/ 15/ 21 1016.7
EXECUTION ROCKS  1545            58     320/ 16/ 21   N/A
WESTERN LI SOUND 1449            58     320/ 14/ 19   N/A           1/ 2
CENTRAL LI SOUND NOT AVBL
EASTERN LI SOUND NOT AVBL
ROBBINS REEF     1542            55     330/ 16/ 22 1017.3
$$


>>>>>>>>>>>>>>>>>>>>>>>>>>>> KEY <<<<<<<<<<<<<<<<<<<<<<<<<<<
>                                                          <
>     SKY/WX - Sky Condition/Present Weather               <
>     TMP    - Temperature in Fahrenheit                   <
>     DP     - Dew Point in Fahrenheit                     <
>     RH     - Relative Humidity in Percent                <
>     WIND   - Direction (from) and Speed in MPH           <
>     PRES   - Mean Sea Level Pressure (inches of Hg)      <
>     WCI    - Wind Chill Index                            <
>     VSB    - VISIBILITY IN MILES                         <
>     HX     - HEAT INDEX                                  <
>     TC     - TEMPERATURE IN CELSIUS                      <
>     VRB    - VARIABLE WIND DIRECTION                     <
>                                                          <
>>>>>>>>>>>>>>>>>>>>>>>>>>>> KEY <<<<<<<<<<<<<<<<<<<<<<<<<<<




USA.gov is the U.S. government's official web portal to all federal, state and local government web resources and services.